Theta_e
347 353 353 354 369 364 359 352 348 348 350 347 347 347 350 349 354 361 347 346 344 343 347 348 344 347 345 343 348 344 344 343 344 345 350 353 352 353 351 353 354 354 352 350 354 354 354 354 353
352 351 352 358 366 363 357 351 349 349 346 348 350 349 348 352 347 347 347 346 345 344 344 346 344 344 343 344 344 343 342 344 346 346 352 353 351 353 353 351 353 354 352 354 353 354 354 354 353
348 346 355 359 363 361 356 350 350 348 346 348 350 348 347 348 345 345 347 346 346 345 345 343 343 342 345 344 341 342 339 347 351 352 350 349 352 353 353 352 353 352 351 352 354 353 352 352 351
350 354 355 367 358 354 351 350 348 347 347 347 348 350 345 343 344 345 345 346 346 345 344 344 346 346 346 346 344 343 343 347 350 349 347 353 353 353 354 353 351 354 354 354 354 354 353 353 351
351 356 365 362 358 352 349 348 345 346 348 347 348 350 349 343 343 345 346 345 343 342 342 344 344 344 341 340 343 345 342 344 346 346 349 349 353 354 354 352 352 345 348 353 355 354 354 353 353
358 353 363 364 358 354 352 348 345 346 347 346 348 349 348 341 342 341 341 343 343 341 340 341 340 337 337 340 342 349 347 343 344 345 346 347 349 352 354 353 348 348 351 353 353 353 354 352 345
355 361 361 361 362 359 354 350 348 346 345 346 345 349 346 341 340 339 340 342 342 341 339 341 340 339 339 338 340 345 346 347 344 344 347 344 343 345 351 353 350 351 352 353 350 349 351 347 346
351 355 356 360 362 362 353 352 351 346 348 343 345 349 349 342 339 339 340 343 343 342 342 340 341 341 339 338 340 342 342 343 340 341 341 347 352 350 354 348 351 352 354 353 346 345 344 343 344
349 362 364 359 357 359 352 353 350 344 344 346 345 344 344 342 341 341 340 341 345 344 343 344 348 343 339 335 337 339 341 341 341 342 344 346 350 348 348 348 352 353 352 347 344 343 341 340 339
351 363 357 352 353 355 352 354 350 346 347 348 347 345 343 341 341 341 341 340 342 343 343 346 346 349 343 340 339 340 340 341 343 345 347 349 346 347 346 345 345 346 345 343 343 341 343 348 346
351 358 353 351 350 350 353 354 351 345 346 348 348 346 344 343 342 341 340 340 340 341 343 346 347 346 346 348 342 340 342 341 343 344 345 344 346 342 343 346 347 347 345 345 344 345 349 346 344
355 355 352 351 349 351 353 354 352 349 351 345 346 345 344 344 343 341 340 339 340 341 344 346 346 345 344 348 344 345 348 346 346 346 345 345 343 343 342 345 345 345 347 345 344 344 347 348 349
353 353 352 351 351 351 351 355 353 351 346 345 345 345 345 345 343 341 340 340 339 341 345 347 345 347 346 347 348 347 348 344 343 344 345 345 344 344 345 345 347 344 343 347 347 345 347 346 346
351 353 353 351 352 351 352 353 353 351 346 345 346 345 345 345 343 342 341 340 339 341 344 345 345 347 346 348 346 345 345 342 342 342 346 349 345 348 346 347 345 344 346 345 346 349 346 344 342
351 356 354 353 353 352 350 351 354 352 347 345 345 345 344 343 343 343 341 340 340 343 344 344 344 345 346 346 346 346 344 344 343 345 350 351 350 354 348 346 348 345 350 349 347 348 344 342 342
353 355 362 356 353 352 352 356 354 353 351 347 344 346 345 344 343 344 344 341 341 343 345 345 343 346 345 345 347 345 344 342 343 343 348 351 354 352 350 350 349 347 347 345 345 346 343 343 343
352 358 357 358 353 354 353 356 352 351 351 351 345 346 345 346 345 344 344 343 342 343 347 346 344 346 344 347 347 348 345 344 342 344 347 350 352 353 350 349 349 352 345 345 345 343 345 343 342
353 353 349 359 355 354 355 355 352 351 350 354 351 346 346 346 346 345 345 344 345 343 347 347 344 347 345 347 351 347 343 345 343 343 348 350 350 352 351 348 351 353 345 345 350 347 346 346 343
347 348 343 349 353 353 352 352 355 353 351 355 353 347 346 347 345 345 345 345 345 345 346 348 346 349 346 346 347 348 346 344 342 343 351 350 350 352 351 349 350 349 348 353 349 352 349 343 344
342 345 342 344 351 353 352 354 354 353 353 350 350 350 346 346 347 346 346 346 347 347 347 348 349 350 348 346 346 345 344 344 344 345 350 350 350 351 350 352 350 351 350 351 353 354 353 347 347
338 340 338 339 345 349 350 355 355 357 352 350 350 350 349 347 348 348 347 347 347 349 349 350 350 351 349 346 347 348 346 349 344 346 348 349 351 351 352 353 352 354 349 350 353 353 355 353 347
335 334 336 335 342 358 347 364 356 355 356 355 352 350 350 348 348 348 347 346 347 348 350 351 351 351 351 347 347 348 346 344 343 345 345 347 350 350 351 351 352 353 350 352 352 352 354 354 348
332 335 333 333 338 349 348 356 355 354 357 356 353 352 350 350 348 345 347 347 346 348 350 350 353 352 350 349 349 348 347 345 346 342 346 346 352 351 350 351 354 355 352 350 354 355 355 354 350
328 333 335 336 338 346 342 343 354 349 349 353 353 350 350 350 348 349 344 341 347 348 348 350 352 353 352 350 351 349 348 347 346 345 346 346 348 350 351 351 353 354 354 351 352 355 356 356 357
327 332 338 338 338 343 344 344 344 343 341 345 348 351 351 350 351 350 350 346 346 348 348 349 352 354 353 351 350 350 349 350 351 347 347 343 344 345 350 353 353 352 355 353 351 354 356 356 354
326 331 335 347 345 346 343 341 341 340 339 342 346 349 352 352 351 350 350 348 347 347 349 349 351 354 353 351 350 351 350 349 349 350 348 346 344 343 351 354 351 351 352 353 353 351 350 350 353
326 331 331 337 340 343 344 339 341 340 338 343 346 348 348 350 351 352 349 349 349 347 350 350 351 353 353 352 351 351 351 349 346 346 347 347 345 345 348 347 350 350 351 350 352 352 349 350 355
332 331 332 334 343 345 339 337 339 340 338 340 344 345 344 345 349 351 351 349 348 348 350 351 351 353 353 352 351 350 349 349 348 348 349 346 348 347 348 348 350 351 350 353 353 349 351 350 352
329 331 331 332 333 336 337 339 336 337 340 340 342 342 344 345 347 347 350 349 349 348 349 350 351 353 353 352 351 350 350 349 350 350 349 350 350 350 350 353 353 352 352 353 353 352 351 350 353
332 330 330 331 334 333 334 339 337 337 338 339 344 343 344 343 345 347 347 348 351 350 350 350 350 351 352 353 352 352 351 350 349 349 349 350 350 350 351 351 350 351 352 352 352 352 348 350 350
Wind_Speed
6 6 8 8 4 4 5 11 13 9 9 14 7 12 16 14 13 6 17 20 21 19 14 11 13 11 12 12 11 11 10 8 8 9 11 11 11 14 14 15 16 16 17 17 17 16 15 14 15
7 5 10 6 1 4 7 10 8 13 9 12 12 9 15 19 17 17 15 17 19 19 16 14 14 13 13 13 13 13 12 10 9 11 11 11 12 14 15 15 15 16 17 17 16 15 15 14 13
6 8 9 5 2 4 11 10 12 10 8 7 7 9 8 13 10 13 25 18 16 19 19 15 14 13 14 14 14 13 12 9 10 11 12 12 12 14 14 15 15 16 17 17 16 16 15 14 12
8 6 6 4 7 15 14 13 11 10 6 8 9 12 18 9 13 22 22 18 18 21 16 16 14 14 14 13 13 12 12 12 11 11 12 12 13 13 14 14 16 17 16 15 14 13 10 8 9
9 6 5 2 7 13 11 9 8 10 9 7 3 17 14 17 20 20 19 18 22 19 15 15 15 14 14 13 14 10 11 14 12 12 11 13 13 13 14 14 16 16 15 14 12 10 8 8 9
7 5 2 5 8 11 10 4 13 11 10 8 17 16 14 19 18 16 19 22 19 21 19 16 17 17 14 13 13 12 11 14 14 12 12 12 12 13 14 15 14 16 14 13 11 11 9 11 10
11 3 7 2 7 11 11 3 5 8 12 14 12 14 12 15 18 17 15 21 20 24 21 19 20 17 15 14 11 12 14 14 15 15 15 17 15 12 14 14 15 13 13 11 11 12 11 10 10
4 3 5 6 3 5 7 7 2 5 13 11 10 7 16 19 19 18 15 20 19 16 21 24 25 19 18 17 13 13 12 21 17 12 10 15 14 13 14 14 13 11 11 10 10 10 10 10 10
7 3 7 5 6 4 5 10 5 12 13 7 3 17 20 22 20 18 17 15 22 17 17 17 26 19 22 18 15 16 16 14 12 13 12 15 13 13 14 12 11 10 10 8 9 8 8 10 12
9 5 9 9 9 10 6 3 10 12 13 10 12 20 24 21 18 18 17 17 16 18 12 14 14 17 20 20 22 23 19 16 15 14 10 10 13 11 13 11 11 10 9 8 8 9 6 8 8
3 4 3 9 7 13 1 6 4 11 6 14 15 19 20 19 17 16 16 17 17 14 16 13 8 11 25 22 23 20 19 16 17 14 9 8 10 13 13 12 9 8 9 9 7 4 5 2 4
2 5 4 9 10 10 10 2 3 9 6 12 18 18 17 17 15 16 15 15 17 13 14 15 10 5 6 15 29 22 18 16 16 12 11 9 11 13 13 13 11 9 7 7 8 5 5 3 2
6 7 9 12 11 9 5 4 4 6 6 8 18 16 17 15 14 15 14 14 15 15 15 18 12 6 3 1 20 14 20 13 15 13 10 10 11 9 10 11 10 7 9 7 2 5 3 4 5
7 10 10 9 11 5 4 2 4 5 9 13 17 17 15 15 17 14 14 15 16 16 14 14 12 9 6 6 7 11 13 14 13 13 10 6 11 9 13 11 11 8 5 7 6 1 4 3 6
11 10 12 11 10 5 9 7 4 10 12 14 16 15 12 12 15 15 15 16 16 16 14 14 13 11 8 8 8 5 12 14 13 15 12 6 9 4 9 7 6 8 5 5 5 5 3 5 6
9 9 4 11 13 13 9 10 3 10 4 11 15 12 13 13 17 15 14 16 16 15 15 15 14 14 11 11 8 6 8 11 13 14 12 8 6 6 5 8 8 6 8 8 6 4 3 2 3
8 6 8 10 9 13 9 3 8 5 7 9 15 16 12 11 14 16 16 15 17 16 15 14 12 13 13 11 11 7 8 8 9 12 14 9 7 3 3 5 9 6 5 4 7 8 4 5 4
4 10 5 13 10 15 15 11 14 10 14 8 12 16 15 14 14 18 18 16 17 16 16 14 14 13 13 13 6 8 12 9 10 10 11 10 7 5 2 5 5 6 4 4 8 5 2 6 3
11 13 1 7 11 11 12 14 15 15 15 12 6 13 18 16 14 18 17 18 18 15 16 16 16 15 14 15 14 13 12 11 11 10 9 8 7 6 4 4 5 2 3 7 2 7 5 4 2
9 4 3 5 8 9 8 12 18 17 15 14 12 12 12 17 10 19 18 20 20 22 17 17 17 17 16 15 14 12 10 13 14 10 10 9 8 7 6 3 2 1 2 4 3 5 4 4 2
11 8 3 3 6 10 5 14 15 19 16 14 15 15 11 10 6 16 20 17 20 25 21 19 19 18 19 15 14 9 9 4 12 12 10 11 8 7 7 5 4 1 4 6 5 4 8 7 6
18 12 5 4 10 2 19 2 10 17 15 19 19 19 17 13 14 11 11 21 19 19 20 20 20 20 19 18 17 14 15 15 14 12 12 14 11 7 8 7 5 4 5 4 4 5 8 8 6
15 9 3 6 11 13 13 5 3 13 16 16 16 19 18 20 20 17 15 15 21 21 22 21 21 22 20 21 17 17 15 16 10 15 12 10 10 9 9 7 6 5 5 5 5 3 5 6 11
17 7 7 10 14 10 10 7 14 10 9 14 19 14 15 17 14 17 21 19 16 22 21 23 22 23 22 22 20 18 17 16 10 14 13 13 14 13 10 7 7 7 5 4 5 6 7 7 6
17 13 11 10 11 8 4 7 9 15 3 7 9 6 5 8 18 18 20 22 20 22 23 23 23 24 23 23 23 22 19 16 12 14 14 14 16 15 19 12 8 10 9 4 5 5 6 6 7
17 18 12 7 4 9 5 5 7 10 8 7 7 7 6 6 9 14 18 23 24 22 23 24 25 24 23 23 24 23 22 19 17 14 14 15 14 12 14 10 7 9 9 9 7 7 8 10 9
16 18 22 10 20 12 11 4 12 12 9 10 9 7 6 4 4 10 14 19 18 25 25 24 25 23 23 23 23 23 23 22 21 19 18 16 17 8 11 7 9 9 9 9 9 10 10 10 8
12 11 13 10 10 11 7 7 6 10 10 10 9 8 6 4 3 4 10 20 23 26 22 24 25 25 24 23 22 22 22 21 22 20 17 19 13 14 5 11 10 11 10 7 8 14 14 12 12
12 12 12 12 11 9 9 7 9 11 13 9 8 5 6 4 5 2 4 13 19 25 24 24 23 26 25 25 24 21 22 22 23 21 19 18 15 13 7 9 8 9 13 12 13 12 16 8 11
11 16 17 9 13 9 10 5 6 7 6 8 9 6 4 2 2 0 4 8 11 19 22 25 25 27 26 26 24 24 22 22 23 24 24 21 21 17 16 13 14 13 14 13 11 12 12 11 13
Wind_Direction
196 209 237 254 246 170 323 101 90 120 93 72 56 55 68 31 37 80 128 121 133 133 138 123 112 111 118 118 115 116 116 122 124 115 111 110 112 110 110 112 110 107 106 107 104 102 100 99 97
221 232 245 281 49 326 73 85 85 61 92 93 63 4 74 71 86 115 102 126 135 138 139 132 123 117 117 117 116 110 117 108 121 116 115 117 117 113 111 111 109 109 109 109 108 104 99 98 97
249 244 267 233 276 129 97 95 83 89 119 118 99 27 39 100 64 101 118 129 118 115 122 129 124 123 122 117 116 115 116 124 119 122 127 119 115 111 111 111 112 112 111 111 107 104 101 95 90
218 210 247 21 102 72 101 100 116 117 102 92 132 91 80 61 103 106 108 125 127 121 123 128 128 127 126 122 121 118 128 126 127 129 127 122 117 118 114 118 116 112 109 108 105 104 103 95 92
246 259 267 301 83 88 81 101 105 76 95 130 120 111 95 91 110 120 139 147 122 114 115 127 129 121 110 119 124 117 114 124 118 129 125 125 123 120 118 120 116 111 113 110 103 99 100 99 98
260 255 228 195 142 117 97 78 76 82 80 119 108 113 103 120 123 124 125 115 110 111 111 115 124 111 116 113 105 104 106 115 116 115 126 122 121 125 123 122 116 118 112 107 101 97 102 109 108
260 350 273 98 182 125 115 70 41 115 117 114 132 120 130 139 131 126 123 114 116 118 117 124 121 111 106 108 112 109 112 100 108 111 117 120 115 125 127 118 120 118 114 110 104 102 109 105 105
285 217 322 26 133 89 111 97 294 115 82 109 78 144 153 137 141 129 132 122 125 130 132 137 131 123 124 117 117 114 108 111 106 111 128 121 131 133 128 124 126 121 121 120 110 105 104 104 104
241 344 193 193 156 113 209 153 96 101 141 100 134 138 138 146 146 144 135 132 126 141 150 135 141 140 141 123 113 107 121 117 135 135 143 134 132 130 123 138 133 134 134 133 117 110 115 109 90
269 327 24 60 119 154 225 183 144 145 117 115 96 108 135 152 155 150 158 145 142 143 132 90 140 153 146 141 138 143 150 151 147 141 166 176 138 127 132 143 143 144 144 134 118 112 122 153 145
13 20 73 90 104 140 138 121 208 149 132 127 135 141 149 156 167 158 166 154 153 156 142 138 118 161 155 155 141 150 148 146 136 130 120 131 126 135 131 141 145 155 152 149 140 180 218 141 118
233 61 71 112 128 151 144 278 154 55 202 109 134 149 153 165 176 159 160 157 141 145 143 125 154 142 164 138 144 167 155 139 138 136 135 145 152 149 155 156 139 167 162 139 185 131 107 160 201
101 105 109 127 106 91 133 148 73 162 122 132 138 152 163 169 164 163 151 148 145 157 153 155 141 151 137 157 145 137 148 149 123 136 146 159 136 129 129 154 164 144 161 140 143 120 150 155 161
109 122 131 149 136 115 107 10 250 197 151 140 150 158 166 164 168 151 154 158 156 160 158 138 150 150 152 96 121 140 137 128 143 137 148 155 142 164 146 162 153 154 159 150 130 146 162 172 129
151 152 151 144 138 117 84 347 235 271 158 157 164 156 159 158 149 158 159 162 166 164 162 147 157 155 153 137 150 155 149 142 145 138 156 156 139 253 136 122 166 139 74 113 122 189 189 129 133
208 131 288 132 143 144 132 211 103 283 146 175 166 150 160 159 157 159 161 169 162 165 160 162 170 153 156 155 168 176 150 144 151 150 159 162 98 149 116 172 133 147 175 172 161 230 169 134 149
178 208 161 135 172 145 167 132 214 201 214 219 171 164 160 178 162 164 163 165 160 160 165 170 173 161 162 161 160 185 138 157 157 164 162 163 160 176 85 137 98 234 173 125 209 175 280 161 250
64 319 136 152 161 172 193 149 171 194 219 168 252 163 175 180 188 170 169 167 157 169 169 170 176 164 169 169 183 203 159 175 169 177 144 154 164 154 227 117 110 264 182 195 29 14 88 307 251
158 144 144 101 138 187 202 172 173 181 224 172 242 181 180 187 186 172 183 168 163 168 178 175 176 169 178 177 184 198 189 179 182 183 130 174 170 171 194 155 171 233 343 14 109 214 176 200 189
166 302 66 100 149 237 186 170 167 183 199 194 197 229 203 191 148 174 183 181 178 173 183 182 181 178 189 190 204 191 212 187 192 185 165 195 190 190 191 205 196 178 288 178 232 292 287 224 171
251 195 187 326 177 228 223 181 165 172 193 202 198 228 194 212 190 191 178 191 188 171 185 189 186 187 195 197 197 191 213 249 196 188 195 204 198 204 217 197 224 201 245 208 188 244 289 340 166
251 224 162 238 261 114 314 198 247 165 188 189 194 201 209 198 200 215 219 187 198 185 185 190 194 190 197 199 193 187 203 201 197 210 206 188 196 215 210 215 215 235 247 300 229 239 281 310 312
257 210 235 266 259 156 248 114 207 213 188 196 209 202 197 188 204 207 212 222 193 193 181 191 194 195 198 199 213 191 216 204 214 212 180 204 179 207 209 211 221 233 238 224 264 244 252 278 280
243 222 227 226 245 258 203 260 197 168 187 175 178 210 202 181 203 184 210 225 241 188 186 187 192 198 199 199 209 207 200 233 210 225 187 192 202 195 209 213 223 233 247 241 239 236 244 258 310
222 220 227 219 221 241 126 272 132 154 154 130 146 170 204 221 185 185 199 207 221 207 192 190 188 198 198 201 207 208 211 210 226 236 229 208 206 206 184 186 211 231 223 245 249 246 268 245 259
211 226 242 208 332 181 163 237 164 128 119 120 132 132 154 205 214 210 196 203 198 215 197 196 185 197 198 201 208 208 206 209 216 199 234 226 234 209 156 172 208 217 241 221 243 257 244 238 237
191 228 257 181 241 224 211 204 158 157 164 152 158 156 167 186 242 220 203 192 189 211 197 199 185 196 199 201 204 209 208 215 212 215 219 236 245 241 177 195 200 228 224 241 255 249 246 253 234
274 220 240 219 254 259 300 175 117 153 177 167 165 181 143 145 171 234 194 200 204 207 200 199 196 195 201 203 203 204 208 209 216 209 206 228 247 248 250 211 212 222 236 229 237 258 242 227 247
203 236 258 292 288 296 232 224 164 168 148 174 184 138 143 146 139 160 210 215 201 200 194 201 205 189 203 203 201 204 207 208 208 211 214 227 239 232 216 248 250 252 236 221 231 250 269 259 231
272 209 226 227 229 264 303 77 90 105 136 172 134 152 132 87 81 236 194 212 234 211 205 206 208 199 203 206 200 201 206 211 207 215 218 219 220 227 238 230 232 235 244 240 243 237 254 251 248